Showing default

COSMOS 1897, 18575

Orbit data source: Space-Track

COSMOS 1897, 18575 is a payload satellite owned by UNKS (CIS) in GEO that was launched on Thu, 26 Nov 1987 UTC via a PROTON-K/DM-2 launch vehicle from the Tyuratam Missile And Space Complex (TTMTR). Payload-class satellites include a variety of spacecraft equipped with specific instruments for various scientific and technological missions. These include communications satellites like Starlink; space stations such as the ISS; scientific satellites like the Hubble; Earth observation satellites from companies like Planet Labs, Umbra, and HawkEye 360; GPS; miniature CubeSats for education and research; and military/defense satellites.

Not visible in the next 10 days
Identifier
18575, 1987-096A
Orbit
GEO
Country
Flag of CISCIS
Related business
Manufacturer
NPO PM
Mission
Non-operational Defense Communications
Bus & Motor
KAUR-4 AL'TAIR, Unknown motor
Mass
2,400 kg wet, ~2,200 kg dry
Launch date (UTC)
1987-11-26 (39 years ago)
Launch vehicle
PROTON-K/DM-2
Launch site
Tyuratam Missile And Space Complex (TTMTR)
Object type
Payload
Rocket body
Debris
Shape & HBR
Cyl, 2.5 m
Radar Cross Section
9.425 m², Large (>1 m²)

Expand to show TLE details & history
Last TLE update: 2 days ago

TLE from 2 days ago
0 COSMOS 1897
1 18575U 87096A   26171.40970537 -.00000255  00000-0  00000+0 0  9990
2 18575  11.0219 326.8945 0007597 142.1007  36.4766  1.00311829141229
Epoch: 2026-06-20T09:49Z
TLE epoch observation values (Epoch: 2026-06-20T09:49:58.543Z)
Latitude
0.26494°
Longitude
89.42867°
Altitude
35,749.099 km
Speed
3.077 km/s
True Right ascension
09h 42m 11s
True Declination
0° 15' 53"
Sunlit
Object was in daylight at epoch
Visualization orbit readout
Latitude
Unknown
Longitude
Unknown
Altitude
Unknown
Speed
Unknown
Apparent Right ascension
Unknown
Apparent Declination
Unknown
Sunlit
N/A
Visualization observer readout
Local Sidereal Time
00:51:03
Azimuth
Unknown
Elevation
Unknown
Doppler factor
Unknown
Orbital elements
Apogee altitude
35,808.411 km
Perigee altitude
35,744.361 km
Semi-major axis
42,154.523 km
Eccentricity
0.00076
Inclination
11.0219°
RAAN
326.8945°
Arg. of periapsis
142.1007°
True anomaly
36.52839°
Mean anomaly
36.4766°
Eccentric anomaly
36.50249°
Mean motion
0.25077 °/min
Orbital period
1,435.57 mins
BSTAR
0
Loading maneuver chart data...
Computing Atmospheric mass density...
Loading historical data...
Loading historical data...
Loading historical data...
Loading historical data...
Loading historical data...
Loading historical data...
Loading historical data...

Documentation

Showing up to 5 results
|